Miscellaneous Local Product
Issued by NWS North Platte, NE

Home | Current Version | Previous Version | Graphics & Text | Print | Product List | Glossary On
Versions: 1 2 3 4 5 6 7 8 9 10 11 12 13 14 15 16 17 18 19 20 21 22 23 24 25 26 27 28 29 30 31 32 33 34 35 36 37 38 39 40 41 42 43 44 45 46 47 48 49 50
336
AXUS43 KLBF 170510
MISLBF


WESTERN AND NORTH CENTRAL NEBRASKA HOURLY WEATHER ROUNDUP
NATIONAL WEATHER SERVICE NORTH PLATTE NE
1200 AM CDT THU AUG 17 2017

NOTE: "FAIR" INDICATES FEW OR NO CLOUDS BELOW 12,000 FEET WITH NO
SIGNIFICANT WEATHER AND/OR OBSTRUCTIONS TO VISIBILITY.

NOTE: STATIONS NOT REPORTING VARIABLES SUCH AS SKY/WEATHER OR
PRESSURE ARE PROVIDED BY RAWS AND APRS NETWORKS AND ARE NOT UNDER
NATIONAL WEATHER SERVICE QUALITY CONTROL.

...OBSERVATIONS IN AND NEAR THE EASTERN PANHANDLE OF NEBRASKA...

CITY           SKY/WX    TMP DP  RH WIND       PRES   REMARKS
PINE RIDGE     CLEAR     56  53  90 CALM      30.03R
GORDON         FAIR      53  51  91 CALM      30.04S
CHADRON        CLEAR     57  52  83 SW6       30.02S
ALLIANCE       CLEAR     54  51  90 CALM      30.06S
SIDNEY         CLEAR     52  49  89 SW10      30.12S
CRESCENT LAKE    N/A     59  54  83 CALM        N/A
$$

...OBSERVATIONS IN NORTHERN NEBRASKA AND FAR SOUTHERN SOUTH DAKOTA...

CITY           SKY/WX    TMP DP  RH WIND       PRES   REMARKS
WINNER         FAIR      61  54  77 W5        29.94S
VALENTINE      CLEAR     54  48  80 W6        29.98S
THEDFORD       CLEAR     58  54  84 W3        30.02R
AINSWORTH      CLEAR     56  55  94 W6        29.98S
O`NEILL        CLEAR     61  61  97 NW12G17   29.91F
ORD            CLEAR     59  56  89 NW5       29.93S
BROKEN BOW     CLEAR     63  56  78 NW7       29.97R
VALENTINE NWR    N/A     56  52  86 NW5         N/A
HALSEY           N/A     59  53  82 W5          N/A
BUTTE            N/A     62  58  88 NW12        N/A
CHAMBERS         N/A     62  60  92 W3          N/A
EWING            N/A     63  60  91 NW7         N/A
$$

...OBSERVATIONS IN SOUTHWEST NEBRASKA AND FAR NORTHEAST COLORADO...

CITY           SKY/WX    TMP DP  RH WIND       PRES   REMARKS
HOLYOKE        FAIR      59  54  82 W5        30.10R
IMPERIAL       CLEAR     60  54  80 W3        30.05S
OGALLALA       CLEAR     56  55  94 SW3       30.05S
NORTH PLATTE   CLEAR     56  54  93 NW3       30.02R
MCCOOK         CLEAR     60  59  96 W7        30.02R
LEXINGTON      CLEAR     59  57  92 NW3       29.99R
STAPLETON        N/A     56  52  86 CALM        N/A
GOTHENBURG       N/A     62  55  78 NW3         N/A
CALLAWAY         N/A     59  57  92 N6          N/A
$$

...OBSERVATIONS IN CENTRAL LINCOLN COUNTY AREA...

CITY           SKY/WX    TMP DP  RH WIND       PRES   REMARKS
N.P. AIRPORT   CLEAR     56  54  93 NW3       30.02R
N.P. SOUTHEAST   N/A     60  55  83 CALM        N/A
N.P. HILLCREST   N/A     59  54  84 CALM        N/A
$$

...SOME OBSERVATIONS FROM AROUND THE REGION...

CITY           SKY/WX    TMP DP  RH WIND       PRES   REMARKS
DENVER         PTCLDY    59  47  64 S10       30.18S
LIMON          CLOUDY    53  50  89 CALM      30.19S
ASPEN          CLOUDY    53  38  56 SW9       30.32R
LARAMIE        CLEAR     52  41  66 S9        30.25S
CASPER         CLEAR     56  44  64 W7        30.09S
CHEYENNE       CLEAR     59  45  59 SW8       30.20S
SCOTTSBLUFF    CLEAR     61  51  70 SE3       30.08S
GRAND ISLAND   CLEAR     61  61 100 W5        29.94R
OMAHA          PTCLDY    69  61  75 W14       29.82F
SIOUX FALLS    LGT RAIN  66  66 100 NW13      29.75F
PIERRE         CLEAR     59  54  83 NW8       29.90S
RAPID CITY     CLEAR     62  51  67 S3        30.00S
BISMARCK       CLEAR     61  56  83 CALM      29.92R
KANSAS CITY    CLOUDY    71  70  96 S9        29.84R
HILL CITY      CLEAR     63  61  93 SW3       30.02R
WICHITA        CLOUDY    70  69  97 SW5       29.92R
DODGE CITY     CLEAR     64  59  83 NE7       30.04R
OKLAHOMA CITY  CLOUDY    72  70  93 CALM      29.93R
DALLAS         PTCLDY    89  71  55 S13       29.89R HX  95
AMARILLO       CLEAR     70  58  65 E8        30.07S
$$




USA.gov is the U.S. government's official web portal to all federal, state and local government web resources and services.